STARLINK-35418 (65879 NORAD) Tracking and Keplerian Element Data

This shows tracking and keplerian element data for the satellite.

Feedback or suggestion? Click here.




ElementValue
Catalog65879
NameSTARLINK-35418
Epoch Orbit1202
Epoch Day354.15750401
Epoch Year2025
RAAN303.9615
Inclination53.1605
Eccentricity0.0001097
Argument of Perigee82.9445
Mean Anonmoly277.1681
Mean Motion15.30191535
Decay Rate0.00015316
L11 65879U 25223AB 25354.15750401 .00015316 00000+0 52830-3 0 9997
L22 65879 53.1605 303.9615 0001097 82.9445 277.1681 15.30191535 12023



Live tracking and technical data element details for STARLINK-35418 (NORAD 65879). STARLINK-35418 can be tracked NOW for your location showing map with azimuth and elevation plus other details from your city location.







IsCatalogInMostPopularTable: catalog: 65879, numindb: 4
Update: records affected: 1



GetName: 65879 STARLINK-35418

Hit Count: updated at: Mon, 09 Feb 2026 09:23:09 GMT